CAPE
0 0 0 0 0 0 0 0 0 1 4 0 7 4 0 0 0 0 0 0 0 0 0 0 12 1 10 1 3 3 3 2 17 23 11 19 10 14 7 0 0 0 0
0 0 0 0 0 0 0 0 0 0 5 0 0 0 0 0 0 0 0 0 0 0 0 0 0 0 0 0 10 3 0 3 8 11 17 3 3 5 0 0 0 0 0
0 0 0 0 0 0 0 0 0 6 4 8 0 0 0 0 0 0 0 0 0 0 0 0 1 0 0 4 6 0 1 3 3 3 8 11 4 6 14 17 2 1 0
0 0 0 0 0 0 0 0 0 8 9 0 0 0 0 0 0 0 0 0 1 0 0 0 0 0 0 0 2 5 8 14 28 16 12 22 17 29 16 9 3 1 0
0 0 0 0 0 0 0 0 4 9 28 21 3 0 1 0 0 0 0 0 1 2 0 0 0 0 0 0 0 1 4 5 2 1 1 1 4 10 8 4 3 0 0
0 0 0 0 0 0 0 0 0 0 23 31 23 12 10 0 0 0 0 1 0 2 3 0 0 0 0 0 0 0 5 7 11 1 8 11 5 0 0 2 0 0 0
0 0 0 0 0 0 0 0 0 0 5 18 9 7 2 0 0 0 1 3 2 2 1 2 1 0 0 0 0 0 1 0 3 4 8 8 0 0 1 0 0 0 0
0 0 0 0 0 0 0 0 0 0 0 0 2 7 0 0 0 0 0 0 5 3 2 0 0 0 0 0 0 1 0 0 0 0 0 0 0 0 0 0 0 0 0
0 0 0 0 0 0 0 0 0 0 0 0 0 0 0 0 0 0 0 1 4 2 8 1 1 0 0 0 0 0 0 0 0 0 0 0 0 0 0 0 0 0 0
0 0 0 0 0 0 0 0 0 0 0 0 0 0 0 0 0 0 0 0 4 2 4 2 0 2 0 0 0 0 0 0 0 0 0 0 0 0 0 0 0 0 0
0 0 0 0 0 0 0 0 0 0 0 0 0 0 0 0 0 0 0 0 0 0 0 0 0 0 0 0 0 0 0 0 0 0 0 0 0 0 0 0 0 0 0
0 0 0 0 0 0 0 0 0 0 0 0 0 0 0 0 0 0 0 0 0 0 0 0 0 0 0 0 0 0 0 0 0 0 0 0 0 0 0 0 0 0 0
0 0 0 0 0 0 0 0 0 0 0 0 0 0 0 0 0 0 0 0 0 0 0 0 0 0 0 0 0 0 0 0 0 0 0 0 0 0 0 0 0 0 0
0 0 0 0 0 0 0 0 0 0 0 0 0 0 0 0 0 0 0 0 0 0 0 0 0 0 0 0 0 0 0 0 0 0 0 0 0 0 0 0 0 0 0
0 0 0 0 0 0 0 0 0 0 0 0 0 0 0 0 0 0 0 0 0 0 0 0 0 0 0 0 0 0 0 0 0 0 0 0 0 0 0 0 0 0 0
0 0 0 0 0 0 0 0 0 0 0 0 0 0 0 0 0 0 0 0 0 0 0 0 0 0 0 0 0 0 0 0 0 0 0 0 0 0 0 0 0 0 0
0 0 0 0 0 0 0 0 0 0 0 0 0 0 0 0 0 0 0 0 0 0 0 0 0 0 0 0 0 0 0 0 0 0 0 0 0 0 0 0 0 0 0
0 0 0 0 0 0 0 0 0 0 0 0 0 0 0 0 0 0 0 0 0 0 0 0 0 0 0 0 0 0 0 0 0 0 0 0 0 0 0 0 0 0 0
0 0 0 0 0 0 0 0 0 0 0 0 0 0 0 0 0 0 0 0 0 0 0 0 0 0 0 0 0 0 0 0 0 0 0 0 0 0 0 0 0 0 0
0 0 0 0 0 0 0 0 0 0 0 0 0 0 0 0 0 0 0 0 0 0 0 0 0 0 0 0 0 0 0 0 0 0 0 0 0 0 0 0 0 0 0
0 0 0 0 0 0 0 0 0 0 0 0 0 0 0 0 0 0 0 0 0 0 0 0 0 0 0 0 0 0 0 0 0 0 0 0 0 0 0 0 0 0 0
0 0 0 0 0 0 0 0 0 0 0 0 0 0 0 0 0 0 0 0 0 0 0 0 0 0 0 0 0 0 0 0 0 0 0 0 0 0 0 0 0 0 0
0 0 0 0 0 0 0 0 0 0 0 0 0 0 0 0 0 0 0 0 0 0 0 0 0 0 0 0 0 0 0 0 0 0 0 0 0 0 0 0 0 0 0
0 0 0 0 0 0 0 0 0 0 0 0 0 0 0 0 0 0 0 0 0 0 0 0 0 0 0 0 0 0 0 0 0 0 0 0 0 0 0 0 0 0 0
0 0 0 0 0 0 0 0 0 0 0 0 0 0 0 0 0 0 0 0 0 0 0 0 0 0 0 0 0 0 0 0 0 0 0 0 0 0 0 0 0 0 0
0 0 0 0 0 0 0 0 0 0 0 0 0 0 0 0 0 0 0 0 0 0 0 0 0 0 0 0 0 0 0 0 0 0 0 0 0 0 0 0 0 0 0
CIN
-0 -0 -0 -0 -0 -0 -0 -0 -0 -18 -44 -0 -76 -72 -0 -0 -0 -0 -0 -0 -0 -0 -0 -24 -86 -34 -71 -64 -66 -59 -45 -42 -16 -30 -30 -18 -9 -14 -2 -1 -0 -0 -0
-0 -0 -0 -0 -0 -0 -0 -0 -0 -0 -77 -0 -0 -0 -0 -0 -0 -0 -0 -0 -0 -0 -0 -0 -0 -0 -5 -31 -71 -60 -0 -33 -26 -17 -30 -1 -27 -0 -0 -0 -15 -0 -0
-0 -0 -0 -0 -0 -0 -0 -0 -0 -55 -65 -83 -0 -0 -0 -0 -0 -0 -0 -0 -0 -0 -0 -0 -63 -0 -0 -111 -88 -14 -11 -9 -2 -35 -8 -2 -22 -10 -2 -9 -32 -0 -0
-0 -0 -0 -0 -0 -0 -0 -0 -6 -59 -59 -0 -0 -0 -0 -0 -0 -0 -0 -0 -0 -0 -0 -0 -0 -0 -0 -0 -62 -45 -23 -7 -0 -6 -7 -11 -2 -1 -8 -23 -16 -33 -15
-0 -0 -0 -0 -0 -0 -0 -0 -66 -33 -42 -47 -37 -0 -0 -0 -0 -0 -0 -0 -0 -0 -0 -0 -0 -0 -0 -0 -24 -13 -16 -25 -0 -3 -4 -7 -9 -10 -10 -48 -15 -0 -0
-0 -0 -0 -0 -0 -0 -0 -0 -0 -0 -40 -32 -44 -51 -61 -0 -0 -0 -0 -0 -0 -0 -0 -0 -0 -0 -0 -0 -0 -0 -26 -27 -29 -3 -33 -26 -35 -2 -0 -82 -0 -0 -0
-0 -0 -0 -0 -0 -0 -0 -0 -0 -0 -52 -45 -42 -34 -59 -0 -0 -0 -84 -125 -13 -0 -0 -0 -0 -24 -0 -0 -0 -50 -34 -0 -42 -54 -46 -54 -6 -0 -47 -0 -0 -0 -0
-0 -0 -0 -0 -0 -0 -0 -0 -0 -0 -0 -50 -65 -44 -0 -0 -0 -0 -0 -0 -83 -59 -35 -0 -0 -0 -0 -0 -0 -66 -0 -0 -0 -0 -0 -0 -0 -0 -0 -0 -0 -0 -0
-0 -0 -0 -0 -0 -0 -0 -0 -0 -0 -0 -0 -0 -0 -0 -0 -0 -0 -0 -14 -54 -38 -15 -26 -31 -0 -0 -0 -0 -0 -0 -0 -0 -0 -0 -0 -0 -0 -0 -0 -0 -0 -0
-0 -0 -0 -0 -0 -0 -0 -0 -0 -0 -0 -0 -0 -0 -0 -0 -0 -0 -0 -0 -49 -59 -38 -47 -0 -49 -0 -0 -0 -0 -0 -0 -0 -0 -0 -0 -0 -0 -0 -0 -0 -0 -0
-0 -0 -0 -0 -0 -0 -0 -0 -0 -0 -0 -0 -0 -0 -0 -0 -0 -0 -0 -0 -0 -36 -0 -0 -0 -0 -0 -0 -0 -0 -0 -0 -0 -0 -0 -0 -0 -0 -0 -0 -0 -0 -0
-0 -0 -0 -0 -0 -0 -0 -0 -0 -0 -0 -0 -0 -0 -0 -0 -0 -0 -0 -0 -32 -0 -0 -0 -0 -0 -0 -0 -0 -0 -0 -0 -0 -0 -0 -0 -0 -0 -0 -0 -0 -0 -0
-0 -0 -0 -0 -0 -0 -0 -0 -0 -0 -0 -0 -0 -0 -0 -0 -0 -0 -0 -0 -0 -0 -0 -0 -0 -0 -0 -0 -0 -0 -0 -0 -0 -0 -0 -0 -0 -0 -0 -0 -0 -0 -0
-0 -0 -0 -0 -0 -0 -0 -0 -0 -0 -0 -0 -0 -0 -0 -0 -0 -0 -0 -0 -0 -0 -0 -0 -0 -0 -0 -0 -0 -0 -0 -0 -0 -0 -0 -0 -0 -0 -0 -0 -0 -0 -0
-0 -0 -0 -0 -0 -0 -0 -0 -0 -0 -0 -0 -0 -0 -0 -0 -0 -0 -0 -0 -0 -0 -0 -0 -0 -0 -0 -0 -0 -0 -0 -0 -0 -0 -0 -0 -0 -0 -0 -0 -0 -0 -0
-0 -0 -0 -0 -0 -0 -0 -0 -0 -0 -0 -0 -0 -0 -0 -0 -0 -0 -0 -0 -0 -0 -0 -0 -0 -0 -0 -0 -0 -0 -0 -0 -0 -0 -0 -0 -0 -0 -0 -0 -0 -0 -0
-0 -0 -0 -0 -0 -0 -0 -0 -0 -0 -0 -0 -0 -0 -0 -0 -0 -0 -0 -0 -0 -0 -0 -0 -0 -0 -0 -0 -0 -0 -0 -0 -0 -0 -0 -0 -0 -0 -0 -0 -0 -0 -0
-0 -0 -0 -0 -0 -0 -0 -0 -0 -0 -0 -0 -0 -0 -0 -0 -0 -0 -0 -0 -0 -0 -0 -0 -0 -0 -0 -0 -0 -0 -0 -0 -0 -0 -0 -0 -0 -0 -0 -0 -0 -0 -0
-0 -0 -0 -0 -0 -0 -0 -0 -0 -0 -0 -0 -0 -0 -0 -0 -0 -0 -0 -0 -0 -0 -0 -0 -0 -0 -0 -0 -0 -0 -0 -0 -0 -0 -0 -0 -0 -0 -0 -0 -0 -0 -0
-0 -0 -0 -0 -0 -0 -0 -0 -0 -0 -0 -0 -0 -0 -0 -0 -0 -0 -0 -0 -0 -0 -0 -0 -0 -0 -0 -0 -0 -0 -0 -0 -0 -0 -0 -0 -0 -0 -0 -0 -0 -0 -0
-0 -0 -0 -0 -0 -0 -0 -0 -0 -0 -0 -0 -0 -0 -0 -0 -0 -0 -0 -0 -0 -0 -0 -0 -0 -0 -0 -0 -0 -0 -0 -0 -0 -0 -0 -0 -0 -0 -0 -0 -0 -0 -0
-0 -0 -0 -0 -0 -0 -0 -0 -0 -0 -0 -0 -0 -0 -0 -0 -0 -0 -0 -0 -0 -0 -0 -0 -0 -0 -0 -0 -0 -0 -0 -0 -0 -0 -0 -0 -0 -0 -0 -0 -0 -0 -0
-0 -0 -0 -0 -0 -0 -0 -0 -0 -0 -0 -0 -0 -0 -0 -0 -0 -0 -0 -0 -0 -0 -0 -0 -0 -0 -0 -0 -0 -0 -0 -0 -0 -0 -0 -0 -0 -0 -0 -0 -0 -0 -0
-0 -0 -0 -0 -0 -0 -0 -0 -0 -0 -0 -0 -0 -0 -0 -0 -0 -0 -0 -0 -0 -0 -0 -0 -0 -0 -0 -0 -0 -0 -0 -0 -0 -0 -0 -0 -0 -0 -0 -0 -0 -0 -0
-0 -0 -0 -0 -0 -0 -0 -0 -0 -0 -0 -0 -0 -0 -0 -0 -0 -0 -0 -0 -0 -0 -0 -0 -0 -0 -0 -0 -0 -0 -0 -0 -0 -0 -0 -0 -0 -0 -0 -0 -0 -0 -0
-0 -0 -0 -0 -0 -0 -0 -0 -0 -0 -0 -0 -0 -0 -0 -0 -0 -0 -0 -0 -0 -0 -0 -0 -0 -0 -0 -0 -0 -0 -0 -0 -0 -0 -0 -0 -0 -0 -0 -0 -0 -0 -0
Wind_Speed
14 16 17 18 20 18 19 20 20 19 12 15 23 24 25 21 17 17 19 21 22 21 20 23 24 16 15 21 12 13 15 11 10 14 6 13 10 10 8 9 5 7 9
15 16 18 20 21 21 20 20 19 20 16 19 24 24 24 27 17 14 15 17 20 19 19 20 20 15 18 18 13 6 12 13 9 3 7 7 6 8 10 11 9 11 12
16 17 19 20 22 23 22 21 22 20 23 10 12 14 10 5 11 12 11 10 12 13 10 12 15 8 13 11 10 7 10 6 2 3 8 9 9 12 14 13 8 10 11
17 18 19 19 20 23 24 23 22 22 23 17 15 13 11 10 5 10 7 3 4 6 6 6 6 6 5 5 7 5 10 6 4 2 6 14 17 15 14 14 12 12 11
18 19 19 19 20 21 23 24 23 23 22 22 15 9 11 19 10 11 4 3 2 4 5 5 4 4 3 15 6 6 7 5 3 5 12 14 15 12 15 14 12 9 9
19 20 20 21 21 21 22 22 23 23 23 23 20 13 6 17 17 12 2 12 3 4 4 4 6 9 6 3 8 7 8 7 4 7 10 7 15 15 13 9 6 6 7
20 21 22 22 23 22 22 23 25 25 25 25 23 21 3 2 9 14 4 12 12 3 8 7 8 7 3 3 7 6 10 6 10 10 7 6 6 10 10 10 18 5 7
22 21 23 24 24 23 23 24 24 24 25 26 26 24 25 17 6 5 8 2 2 2 4 1 8 5 5 8 3 2 7 12 16 17 19 16 26 32 13 7 9 10 11
23 22 22 24 24 24 24 24 23 25 26 26 26 27 27 31 32 5 3 4 10 12 16 15 9 2 3 5 8 12 11 9 10 14 19 15 5 17 15 13 11 11 12
23 24 23 23 24 24 25 25 24 24 26 27 26 26 30 31 31 31 30 30 24 34 28 28 27 21 15 12 14 12 8 14 29 7 2 3 6 9 7 9 13 11 12
23 23 23 23 23 24 24 24 24 25 26 27 28 26 28 31 32 32 32 33 34 33 32 30 26 22 22 25 26 27 23 5 11 13 12 9 8 10 10 11 11 11 13
22 22 22 22 21 22 23 23 24 25 25 26 27 27 26 27 28 29 31 32 33 33 32 33 30 26 24 25 25 21 18 16 16 13 12 11 11 11 12 13 14 16 17
22 23 22 20 21 22 22 22 23 25 25 26 26 27 27 26 27 29 30 31 32 31 30 30 29 28 27 27 27 24 19 17 14 12 11 9 9 11 12 13 14 17 20
22 24 22 21 20 21 23 23 23 24 25 25 26 26 26 26 27 27 28 29 29 28 28 27 26 25 25 22 17 19 18 17 14 11 9 9 9 9 9 11 13 16 19
23 23 24 22 21 20 22 23 22 24 23 22 24 24 24 24 25 25 25 25 25 24 21 20 19 17 16 15 14 15 14 13 10 7 7 6 6 7 8 10 11 16 16
20 21 22 22 22 20 19 19 4 20 22 22 21 21 22 22 22 22 21 20 19 18 15 16 16 15 14 14 14 11 9 7 5 4 4 4 4 5 7 9 13 14 13
20 20 19 19 20 20 19 19 20 4 10 19 20 20 19 18 17 17 18 16 16 15 15 13 12 12 11 11 10 9 7 4 2 2 2 2 4 6 7 8 10 11 11
17 18 17 16 16 16 17 18 16 16 17 14 14 15 16 14 14 16 13 9 10 15 15 16 16 13 15 16 16 16 12 4 1 1 1 5 7 7 7 8 9 10 9
14 14 15 13 12 12 11 11 13 13 13 9 3 3 4 5 5 7 10 8 10 12 14 14 12 12 13 15 13 10 6 4 4 4 5 6 6 7 9 8 8 7 8
15 16 14 12 9 9 10 10 9 8 9 8 8 10 5 4 9 9 9 11 10 10 11 14 11 8 7 7 7 7 6 6 5 6 7 9 9 9 9 8 7 6 7
13 14 15 12 13 12 12 13 9 8 8 8 9 7 10 10 12 13 14 13 12 12 12 10 9 9 9 9 9 10 10 10 10 11 10 9 10 10 9 10 9 9 7
13 14 15 14 12 12 13 11 10 10 9 8 8 7 9 11 9 11 13 14 13 12 10 10 10 10 11 12 12 12 13 13 13 9 10 9 10 10 9 9 8 7 11
15 14 14 13 12 13 13 13 13 12 11 11 11 10 9 9 9 9 11 11 12 13 13 13 13 13 13 13 14 15 16 16 15 13 12 11 10 10 10 8 7 7 9
15 14 14 12 12 11 12 13 14 14 13 12 12 11 11 12 11 11 10 9 10 11 13 14 15 16 16 15 14 14 14 15 15 14 13 12 11 9 10 9 8 7 8
17 16 14 12 11 11 11 10 11 12 13 13 12 12 12 12 13 13 13 13 12 12 13 14 15 16 16 16 15 14 14 13 13 11 11 11 10 8 8 7 7 8 6
21 18 16 15 14 12 12 10 10 10 10 10 11 12 13 13 13 14 14 15 15 14 14 15 16 16 15 15 15 14 13 11 10 9 8 8 8 8 6 5 3 2 2
Wind_Direction
84 87 74 67 57 81 102 95 90 102 207 206 158 124 158 192 211 213 209 205 201 200 204 181 179 212 214 209 243 247 245 263 256 223 214 205 202 152 170 191 201 208 238
98 92 82 79 70 76 97 93 105 115 169 182 152 119 124 156 213 226 224 219 209 211 208 205 204 219 213 223 244 296 251 246 73 219 216 186 183 168 174 199 204 226 246
104 101 95 86 82 80 93 102 103 122 110 17 47 72 63 274 237 240 242 238 229 235 247 239 230 254 234 247 260 291 272 333 288 82 211 205 175 192 195 205 217 238 259
111 109 108 97 92 81 90 98 90 110 96 54 60 65 61 63 283 236 243 265 273 269 281 282 280 277 273 281 280 340 265 41 244 186 154 194 198 204 205 214 237 253 279
118 118 119 107 99 88 76 100 97 90 99 91 53 34 63 96 231 226 252 251 298 300 297 301 322 19 345 234 300 26 45 29 131 194 192 200 204 199 216 229 241 277 277
123 125 124 117 113 121 116 105 99 100 88 92 84 55 35 206 92 78 212 209 291 353 5 14 48 65 45 16 27 1 79 69 103 198 198 173 193 208 220 238 258 280 308
131 129 132 127 123 124 125 110 99 107 107 98 91 105 10 301 85 86 65 73 211 0 46 58 64 57 38 19 50 80 72 79 185 185 120 162 187 216 224 207 109 332 352
139 131 134 135 128 128 129 119 114 118 111 100 96 112 131 198 93 91 76 239 329 332 266 95 65 65 19 59 98 188 200 206 197 194 193 193 175 141 134 109 66 54 28
145 139 134 136 132 128 130 124 125 119 115 111 109 107 122 151 167 216 215 73 64 58 85 80 77 59 182 163 174 188 187 191 196 190 182 193 211 94 86 74 63 58 23
147 147 139 137 134 132 129 129 133 129 120 114 115 121 114 134 150 143 137 135 104 125 165 162 163 173 186 196 193 193 191 194 161 193 211 12 26 58 30 3 86 55 29
147 145 142 138 137 136 132 135 125 118 118 119 116 129 130 129 134 134 145 156 145 141 156 172 176 180 176 166 164 162 168 165 80 80 70 48 30 26 12 11 23 40 21
145 146 144 141 136 133 132 132 133 126 127 131 126 128 141 145 145 143 141 143 143 142 145 152 162 172 181 181 182 195 100 91 89 80 71 57 46 33 23 21 24 23 15
149 150 148 140 139 140 137 135 134 140 136 141 144 143 143 146 148 147 150 147 147 149 151 155 158 163 164 160 161 138 120 112 98 87 81 57 43 54 49 37 28 18 11
154 156 152 147 142 144 147 146 143 143 145 146 148 148 147 149 149 148 146 143 143 147 145 146 151 150 156 145 120 125 126 122 111 102 79 62 66 55 37 22 9 8 5
159 158 158 154 149 145 151 152 151 157 148 143 149 146 143 146 149 145 140 140 141 138 126 128 130 127 125 121 118 124 124 121 109 86 78 69 50 21 9 9 11 359 359
160 159 159 158 156 152 148 147 287 154 157 158 150 148 154 153 148 149 146 141 135 129 122 135 140 140 140 139 138 130 119 119 95 65 49 34 22 13 1 358 352 354 2
164 163 160 158 158 158 157 156 158 165 144 160 161 162 157 154 150 149 154 146 145 143 153 151 153 154 155 154 152 151 148 133 79 61 29 359 350 346 345 344 347 354 0
167 166 166 166 164 162 163 164 161 159 160 158 162 163 166 162 160 160 148 135 148 166 168 172 174 170 173 176 176 178 173 165 232 205 306 318 319 322 325 328 334 342 350
176 174 171 173 175 174 171 169 168 167 167 163 179 224 202 181 171 165 166 173 176 180 182 183 181 181 184 186 189 191 205 223 272 276 290 299 303 307 311 315 322 329 335
186 179 176 179 192 191 188 189 198 195 189 194 187 184 207 222 195 193 193 190 192 194 193 194 197 208 219 224 231 232 247 256 257 265 280 293 293 293 297 300 301 305 320
203 193 188 191 187 188 184 182 196 215 218 203 203 225 197 198 200 201 201 202 204 203 201 207 220 235 253 254 248 253 259 263 279 288 294 296 295 282 292 303 310 301 312
222 207 196 199 212 212 201 211 213 211 213 233 245 250 200 200 213 210 206 210 216 225 236 238 245 250 242 245 254 258 267 266 275 276 290 278 299 293 290 298 299 293 318
231 221 212 223 224 222 220 225 223 220 232 248 258 258 246 227 217 216 220 228 232 240 258 257 263 267 273 267 266 263 264 262 255 264 277 281 289 293 292 288 272 301 320
231 225 220 228 234 228 224 223 231 225 228 244 244 244 242 246 243 243 249 259 256 258 264 264 264 265 273 274 271 266 264 270 270 270 272 282 292 291 291 283 270 287 311
239 235 229 223 228 227 233 224 224 226 220 225 234 242 250 258 257 259 266 269 268 269 270 274 277 274 267 265 270 270 276 273 274 269 272 267 263 270 286 282 281 295 298
242 238 239 244 247 247 250 241 241 254 252 247 253 259 263 263 266 273 276 278 278 277 276 280 283 281 284 283 281 281 279 272 269 265 266 259 263 268 266 268 271 264 177